[[{"header":{"parameterUnit":"m.s-1","parameterCategory":1,"la1":30.2992,"la2":30.254,"lo1":-89.0895,"lo2":-89.0443,"dy":0.0025,"dx":0.0025,"nx":19,"ny":19,"refTime":"2026-03-16T09:00:00:Z","depth":0,"parameterNumber":2,"parameterNumberName":"U-component_of_WINDS"},"data":[0,0,0,2.9663,2.9664,2.9728,2.9728,2.981,2.9811,0,0,0,0,0,0,0,0,0,0,0,2.9645,2.9645,2.9663,2.9665,2.9728,2.9728,2.981,2.9811,0,0,0,0,0,0,0,0,0,0,0,2.9644,2.9645,2.9646,2.9665,2.9728,2.9728,2.981,2.9761,0,0,0,0,0,0,0,0,0,0,2.9699,2.9683,2.9645,2.9646,2.9665,2.9728,2.9728,2.9759,2.9764,2.9781,0,2.9797,0,2.9805,2.9816,2.9816,0,0,0,2.9664,2.9679,2.9695,2.9646,2.9666,2.9728,2.9699,2.9762,2.9768,2.9788,2.9798,2.9801,2.9806,2.9817,2.9817,2.9917,2.9918,0,0,2.966,2.9656,2.9691,2.9699,2.969,2.9697,2.9701,2.9766,2.9776,2.9798,2.9803,2.9808,2.9817,2.9818,2.9917,2.9918,0,0,0,2.9651,2.9654,2.9669,2.9696,2.9708,2.9699,2.9704,2.9773,2.9778,2.9804,2.9809,2.9818,2.9819,2.9916,2.9917,2.9938,0,0,0,2.9649,2.9648,2.9667,2.9666,2.9706,2.9741,2.9709,2.9774,2.9781,2.9808,2.9818,2.9819,2.9916,2.9917,2.9936,2.9948,0,0,0,2.964,2.9647,2.9657,2.9665,2.9693,2.974,2.9749,2.9775,2.9784,2.9816,2.982,2.9916,2.9917,2.9935,2.9946,2.9973,0,0,0,2.963,2.9674,2.9657,2.9708,2.9692,2.9753,2.9749,2.9794,2.9824,2.9818,2.9916,2.9917,2.9934,2.9944,2.9972,2.9996,3.0006,0,0,2.9683,2.968,2.971,2.9697,2.976,2.9743,2.9809,2.984,2.9847,2.9893,2.9896,2.9937,2.9945,2.9973,3.0062,3.007,0,0,0,2.9725,2.9747,2.9764,2.9793,2.9819,2.9841,2.9863,2.9875,2.9915,2.987,2.9954,2.996,2.9976,2.9988,2.9994,3.0009,2.9922,2.9922,2.9922,2.9793,2.98,2.985,2.9865,2.9893,2.9915,2.9939,2.9958,2.9956,2.9976,2.9989,3.0043,3.0056,3.0061,3.0076,3.0003,3.0003,3.0003,3.0003,2.9871,2.9902,2.99,2.9947,2.9954,2.9994,3.0017,3.0015,3.0053,3.0033,3.0048,3.0025,3.007,3.0083,3.0005,3.0005,3.0004,3.0004,3.0004,2.9916,2.9932,2.9946,2.9989,3.0021,3.0034,3.0071,3.0076,3.008,3.0095,3.011,3.0109,3.0109,3.0102,3.0102,3.0102,3.0102,3.0102,3.0103,2.9957,2.9972,3.0003,3.0034,3.0053,3.0079,3.0103,3.0122,3.0144,3.0144,3.0144,3.014,3.0073,3.0056,3.0105,3.0105,3.0105,3.0104,3.0104,3.0032,3.0016,3.0064,3.0083,3.012,3.0152,3.0158,3.0196,3.0213,3.0231,3.0224,3.0173,3.017,3.0165,3.0151,3.0222,3.0222,3.0222,3.0222,3.007,3.0069,3.0119,3.015,3.0181,3.0192,3.0245,3.0263,3.028,3.029,3.028,3.0262,3.0257,3.0257,3.025,3.0237,3.0328,3.0328,3.0328,3.0117,3.0119,3.0164,3.0181,3.021,3.0235,3.0285,3.0321,3.0336,3.0333,3.0298,3.0294,3.0264,3.0254,3.025,3.0239,3.0214,0,0]},{"header":{"parameterUnit":"m.s-1","parameterCategory":1,"la1":30.2992,"la2":30.254,"lo1":-89.0895,"lo2":-89.0443,"dy":0.0025,"dx":0.0025,"nx":19,"ny":19,"refTime":"2026-03-16T09:00:00:Z","depth":0,"parameterNumber":3,"parameterNumberName":"V-component_of_WINDS"},"data":[0,0,0,3.6278,3.6283,3.6526,3.6527,3.6827,3.6829,0,0,0,0,0,0,0,0,0,0,0,3.6196,3.6198,3.6277,3.6283,3.6526,3.6527,3.6826,3.6829,0,0,0,0,0,0,0,0,0,0,0,3.6195,3.6197,3.6199,3.6284,3.6526,3.6527,3.6826,3.6647,0,0,0,0,0,0,0,0,0,0,3.6413,3.6327,3.6197,3.6199,3.6285,3.6526,3.6528,3.6639,3.6658,3.6711,0,3.6753,0,3.6795,3.6848,3.6849,0,0,0,3.6291,3.6311,3.6385,3.62,3.6287,3.6525,3.6419,3.665,3.6672,3.6737,3.6757,3.6769,3.68,3.685,3.6852,3.7123,3.7124,0,0,3.6278,3.6235,3.637,3.6399,3.6357,3.6411,3.6426,3.6663,3.6684,3.6758,3.6776,3.6805,3.6852,3.6854,3.7122,3.7123,0,0,0,3.6234,3.6225,3.6294,3.6386,3.643,3.6418,3.6435,3.6673,3.6699,3.6779,3.6809,3.6854,3.6857,3.7121,3.7123,3.7126,0,0,0,3.6226,3.62,3.6288,3.6264,3.6426,3.6554,3.644,3.6683,3.6711,3.6807,3.6854,3.686,3.712,3.7122,3.7124,3.7136,0,0,0,3.6184,3.6195,3.6227,3.6261,3.6364,3.6552,3.6591,3.669,3.6729,3.685,3.6861,3.712,3.7122,3.7122,3.7133,3.7196,0,0,0,3.6127,3.6226,3.6226,3.6349,3.6362,3.655,3.659,3.6733,3.6837,3.6855,3.7121,3.7123,3.7121,3.7131,3.7194,3.7243,3.7259,0,0,3.6229,3.6237,3.6313,3.632,3.6497,3.6516,3.6696,3.6833,3.6884,3.7041,3.7048,3.7125,3.7133,3.7196,3.7359,3.7371,0,0,0,3.6332,3.6386,3.6442,3.6538,3.6643,3.6735,3.6848,3.6899,3.7034,3.6955,3.7165,3.7171,3.721,3.7236,3.7246,3.7284,3.7132,3.7132,3.7131,3.6418,3.6476,3.6607,3.6695,3.6787,3.6902,3.6984,3.7073,3.7106,3.7154,3.7202,3.7293,3.7322,3.733,3.7368,3.7231,3.7231,3.7231,3.7231,3.6576,3.6663,3.6703,3.6844,3.6905,3.7026,3.7141,3.716,3.7283,3.7262,3.7299,3.7274,3.7341,3.7378,3.7232,3.7232,3.7231,3.7231,3.7231,3.6641,3.6693,3.6751,3.6896,3.7002,3.7088,3.7203,3.7256,3.7306,3.7343,3.7401,3.7401,3.741,3.7366,3.7366,3.7367,3.7367,3.7367,3.7367,3.6687,3.6752,3.6842,3.6961,3.703,3.7128,3.7244,3.7314,3.7406,3.7435,3.7436,3.7466,3.7336,3.7303,3.7373,3.7372,3.7371,3.737,3.737,3.683,3.6806,3.6944,3.7013,3.7158,3.7261,3.7325,3.7463,3.7529,3.7585,3.7606,3.75,3.7513,3.7506,3.748,3.7591,3.7591,3.7591,3.7591,3.6888,3.6898,3.7052,3.7159,3.7269,3.7341,3.7499,3.759,3.7682,3.7727,3.7718,3.7686,3.7676,3.7696,3.7684,3.7661,3.7815,3.7815,3.7816,3.698,3.7004,3.7127,3.7213,3.733,3.7431,3.7581,3.7705,3.7803,3.7826,3.7764,3.7754,3.7705,3.7685,3.7708,3.7689,3.7647,0,0]}]]